FENGYUN 1C DEB, 43214

Orbit data source: Space-Track

FENGYUN 1C DEB, 43214 is space debris in SSO originally from a launch on Mon, 10 May 1999 UTC launched from the Taiyaun Space Center, China (TSC). Fengyun 1C debris stems from the Chinese weather satellite Fengyun-1C, which was intentionally destroyed by a Chinese anti-satellite missile in 2007. This event dramatically increased the amount of space debris, with thousands of trackable fragments posing hazards to satellites and human spaceflight. The Fengyun 1C debris cloud has become a focal point in discussions about space sustainability and the need for international regulations to prevent the creation of new debris.

Loading next visibility...
Identifier
43214, 1999-025EYN
Orbit
SSO
Country
Flag of CNCN / PRC
Related business
Manufacturer
Unknown
Mission
Spacecraft
Bus & Motor
Unknown
Mass
Unknown
Launch date (UTC)
1999-05-10 (26 years ago)
Launch vehicle
Unknown
Launch site
Taiyaun Space Center, China (TSC)
Object type
Payload
Rocket body
Debris
Shape & HBR
Unknown shape, 0.1 m
Radar Cross Section
Small (<0.1 m²)

Expand to show TLE details & history
Last TLE update: 18 hours ago

TLE from 18 hours ago
0 FENGYUN 1C DEB
1 43214U 99025EYN 25298.16160518  .00003996  00000-0  17450-2 0  9999
2 43214  98.7386   3.1808 0053494   9.8848 350.3370 14.23652525397127
Epoch: 2025-10-25T03:52Z
TLE epoch observation values (Epoch: 2025-10-25T03:52:42.687Z)
Latitude
-0.00001°
Longitude
-88.79318°
Altitude
778.021 km
Speed
7.485 km/s
True Right ascension
00h 12m 43s
True Declination
0° 00' 00"
Sunlit
Object was in full shadow at epoch
Visualization orbit readout
Latitude
Unknown
Longitude
Unknown
Altitude
Unknown
Speed
Unknown
Apparent Right ascension
Unknown
Apparent Declination
Unknown
Sunlit
N/A
Visualization observer readout
Local Sidereal Time
17:13:18
Azimuth
Unknown
Elevation
Unknown
Doppler factor
Unknown
Orbital elements
Apogee altitude
848.635 km
Perigee altitude
771.728 km
Semi-major axis
7,188.319 km
Eccentricity
0.00535
Inclination
98.7386°
RAAN
3.1808°
Arg. of periapsis
9.8848°
True anomaly
350.23342°
Mean anomaly
350.337°
Eccentric anomaly
350.28528°
Mean motion
3.56125 °/min
Orbital period
101.09 mins
BSTAR
0.001745
Loading maneuver chart data...
Computing Atmospheric mass density...

Documentation

Showing up to 5 results
|